Location: Tucson
(32.2217°N, 110.9265°W)
Time: 20:15:14
(UTC-07:00)

A-11 Canister half - Pass Details

Date: 30 October 2021
Orbit: 1516 x 1684 km, 47.2° (Epoch: 28 November)

Event Time Altitude Azimuth Distance (km) Brightness Sun altitude
Rises 19:24:29 0° 288° (WNW) 4,927 12.8 -23.7°
Reaches altitude 10° 19:28:11 10° 297° (WNW) 3,927 11.9 -24.4°
Maximum altitude 19:37:01 33° 359° (N) 2,500 10.0 -26.3°
Enters shadow 19:40:59 25° 37° (NE) 2,827 10.0 -27.1°
